sat.trackr.live / text

‹ back to catalog

STARLINK-5043

NORAD 53894 · 2022-119J

PAYLOAD ACTIVE UNKNOWN

§ Identity

Operator
Country
US
Launch date
2022-09-24
Launch site
AFETR
Launch vehicle
Mass (kg)
RCS (m²)

Purposes: comms

External: N2YO · Heavens-Above · Gunter

§ Orbital elements

Epoch: 2026-09-20T22:19:04.970496Z

Period
94.01 min
Inclination
53.1611°
Eccentricity
0.0001328
Mean motion
15.31698441 rev/d
Perigee alt
469.8 km
Apogee alt
471.7 km
Semi-major
6,848.9 km
B*
3.6236e-6
RAAN
144.5791°
Arg perigee
91.1886°
Mean anomaly
268.9268°
Rev number
22,148

§ Raw data

STARLINK-50431 53894U 22119J   26263.92991864 -.00000253  00000+0  36236-5 0  99962 53894  53.1611 144.5791 0001328  91.1886 268.9268 15.31698441221486

JSON: /api/v1/satellites/53894 · /tle

For live sub-satellite position, see the globe view (requires WebGL).

§ Visibility from observer

Set your observer location to see the next 7 days of passes ≥ 10°. The values pass through the URL so the page stays shareable.

No JS? Fill the form by hand. The geolocation button needs JavaScript.